CW2234 Weather Reports


Display with metric or nautical units.
time (UTC)temp
F
wind
direction
speed
MPH
gust
MPH
rain 1hr
in
rain 24hr
in
rain mn
in
humidity
%
barometer
mb
20260505021553 61 0 1.0 6.0 0.00 0.00 0.00 79 1014.6
20260505020055 62 146 0.0 7.0 0.00 0.00 0.00 79 1014.5
20260505014555 62 150 1.0 10.0 0.00 0.00 0.00 78 1014.6
20260505013055 63 0 3.0 8.0 0.00 0.00 0.00 77 1014.6
20260505011558 64 135 3.0 12.0 0.00 0.00 0.00 73 1014.5
20260505010058 64 0 1.0 9.0 0.00 0.00 0.00 70 1014.7
20260505004601 64 134 1.0 6.0 0.00 0.00 0.00 73 1014.7
20260505003057 64 205 1.0 7.0 0.00 0.00 0.00 77 1014.8
20260505001557 64 142 2.0 9.0 0.00 0.00 0.00 75 1015.0
20260505000059 65 125 1.0 11.0 0.00 0.00 0.00 74 1014.9
20260504234617 65 157 1.0 10.0 0.00 0.00 0.00 74 1014.8
20260504233052 65 118 4.0 14.0 0.00 0.00 0.00 73 1014.7
20260504231601 66 180 2.0 10.0 0.00 0.00 0.00 73 1014.6
20260504230053 67 93 3.0 11.0 0.00 0.00 0.00 69 1014.6
20260504224600 66 55 3.0 12.0 0.00 0.00 0.00 70 1014.9
20260504223052 67 309 2.0 10.0 0.00 0.00 0.00 72 1015.0
20260504221602 66 325 3.0 12.0 0.00 0.00 0.00 74 1015.0
20260504220055 66 105 3.0 8.0 0.00 0.00 0.00 72 1015.2
20260504214556 66 94 2.0 15.0 0.00 0.00 0.00 73 1015.5
20260504213103 66 24 3.0 11.0 0.00 0.00 0.00 74 1015.7
20260504211602 66 127 3.0 10.0 0.00 0.00 0.00 72 1015.9
20260504210104 67 127 1.0 6.0 0.00 0.00 0.00 71 1015.8
20260504204636 67 116 2.0 10.0 0.00 0.00 0.00 71 1015.8
20260504203051 67 33 2.0 9.0 0.00 0.00 0.00 70 1015.8
20260504201552 67 138 2.0 8.0 0.00 0.00 0.00 71 1015.7
20260504200057 67 126 3.0 11.0 0.00 0.00 0.00 67 1015.8
20260504194553 67 92 2.0 11.0 0.00 0.00 0.00 67 1015.8
20260504193053 68 57 3.0 12.0 0.00 0.00 0.00 65 1015.8
20260504191552 68 175 2.0 10.0 0.00 0.00 0.00 63 1015.9
20260504190059 67 143 2.0 8.0 0.00 0.00 0.00 64 1015.7
20260504184602 67 118 3.0 11.0 0.00 0.00 0.00 64 1015.9
20260504183059 66 115 2.0 11.0 0.00 0.00 0.00 68 1015.9
20260504181551 66 115 2.0 7.0 0.00 0.00 0.00 66 1016.0
20260504180050 66 113 2.0 9.0 0.00 0.00 0.00 66 1016.0
20260504174553 66 149 1.0 7.0 0.00 0.00 0.00 68 1016.0
20260504173052 65 151 3.0 9.0 0.00 0.00 0.00 69 1015.9
20260504171553 65 132 1.0 8.0 0.00 0.00 0.00 68 1015.8
20260504100103 58 0 0.0 4.0 0.00 0.00 0.00 82 1014.2
20260504081555 59 118 0.0 4.0 0.00 0.00 0.00 81 1015.3
20260504070103 59 218 2.0 7.0 0.00 0.00 0.00 80 1015.7
20260504044602 60 178 1.0 7.0 0.00 0.00 0.00 79 1014.8
20260504043054 60 130 2.0 7.0 0.00 0.00 0.00 80 1014.9
20260504041556 60 134 1.0 4.0 0.00 0.00 0.00 81 1014.9
20260504040057 60 0 1.0 6.0 0.00 0.00 0.00 81 1014.6
20260504034609 61 0 1.0 5.0 0.00 0.00 0.00 80 1014.3
20260504033050 61 126 1.0 7.0 0.00 0.00 0.00 78 1014.2
20260504031549 61 142 2.0 8.0 0.00 0.00 0.00 76 1014.0
20260504030054 61 137 1.0 5.0 0.00 0.00 0.00 76 1013.9
20260504024553 61 239 2.0 8.0 0.00 0.00 0.00 75 1013.8
20260504023051 61 0 1.0 10.0 0.00 0.00 0.00 75 1013.7